Location: Mittersill
(44.1801°N, 71.7142°W)
Time: 03:04:49
(UTC+00:00)

USA 59 Rocket - Pass Details

Date: 10 September 2024
Orbit: 380 x 1727 km, 63.3° (Epoch: 04 October)

Event Time Altitude Azimuth Distance (km) Brightness Sun altitude
Rises 23:25:05 0° 334° (NNW) 2,470 3.7 -4.3°
Reaches altitude 10° 23:27:19 10° 351° (N) 1,716 2.6 -4.7°
Maximum altitude 23:30:22 22° 45° (NE) 1,287 1.4 -5.2°
Drops below altitude 10° 23:34:10 10° 97° (E) 2,192 2.2 -5.9°
Enters shadow 23:35:01 - 102° (ESE) 2,488 2.4 -6.0°
